Date String (YYYY-MM-DD hh:mm:ss) UTC,Instrument flags,absolute air pressure of the measurement (hPa),sample flow rate (lpm),inlet stack bypass flow (lpm),air temperature of the measurement (°C),ambient temperature measured by the external sensor (°C),aerosol sample conditioner tube jacket temperature (°C),OPC LED temperature (°C),internal box temperature (°C),relative humidity of the measurement (%),span deviation,mass concentration of particles derived from Lorenz-Mie calculation of OPC scattering (μg/m³),mass concentration of particles derived from Lorenz-Mie calculation of OPC scattering (μg/m³),mass concentration of particles derived from Lorenz-Mie calculation of OPC scattering (μg/m³)
DateTimeUTC,F1_M11,P_M11,Q1_M11,Q2_M11,T1_M11,T2_M11,T3_M11,T4_M11,T5_M11,U1_M11,ZSPAN_M11,X2_M11,X0_M11,X1_M11
2024-03-05 02:00:00,SystemResetWarning,0822.8,5.00,000.00,022.2,021.4,000.0,030.7,024.0,14.8,0000.0,0003.11,0010.82,0002.16
2024-03-05 02:01:00,SystemResetWarning,0822.9,5.00,000.00,022.2,021.4,000.0,030.7,024.0,14.8,0000.0,0003.13,0010.36,0002.16
2024-03-05 02:02:00,SystemResetWarning,0822.9,5.01,000.00,022.2,021.4,000.0,030.7,024.0,14.9,0000.0,0003.15,0009.86,0002.16
2024-03-05 02:03:00,SystemResetWarning,0822.9,5.00,000.00,022.2,021.4,000.0,030.7,024.0,14.8,0000.0,0003.13,0010.14,0002.16
2024-03-05 02:04:00,SystemResetWarning,0822.9,5.01,000.00,022.2,021.3,000.0,030.7,024.0,14.8,0000.0,0003.10,0010.02,0002.15
2024-03-05 02:05:00,SystemResetWarning,0822.9,5.00,000.00,022.2,021.3,000.0,030.7,024.0,14.8,0000.0,0003.12,0009.90,0002.15
2024-03-05 02:06:00,SystemResetWarning,0822.8,5.00,000.00,022.1,021.3,000.0,030.7,024.0,14.8,0000.0,0003.11,0009.94,0002.14
2024-03-05 02:07:00,SystemResetWarning,0822.8,4.99,000.00,022.1,021.3,000.0,030.7,023.9,14.8,0000.0,0003.09,0010.04,0002.14
2024-03-05 02:08:00,SystemResetWarning,0822.9,4.99,000.00,022.1,021.3,000.0,030.7,023.9,14.8,0000.0,0003.13,0010.18,0002.16
2024-03-05 02:09:00,SystemResetWarning,0823.1,5.01,000.00,022.1,021.3,000.0,030.7,023.9,14.9,0000.0,0003.19,0010.36,0002.19
2024-03-05 02:10:00,SystemResetWarning,0822.8,5.01,000.00,022.1,021.3,000.0,030.6,023.9,14.9,0000.0,0003.23,0010.09,0002.22
2024-03-05 02:11:00,SystemResetWarning,0823.0,4.99,000.00,022.1,021.3,000.0,030.6,023.9,14.9,0000.0,0003.25,0010.60,0002.24
2024-03-05 02:12:00,SystemResetWarning,0823.0,4.99,000.00,022.1,021.3,000.0,030.6,023.9,14.9,0000.0,0003.23,0010.98,0002.25
2024-03-05 02:13:00,SystemResetWarning,0823.1,5.00,000.00,022.1,021.3,000.0,030.6,023.9,14.9,0000.0,0003.20,0010.62,0002.26
2024-03-05 02:14:00,SystemResetWarning,0823.1,5.01,000.00,022.1,021.3,000.0,030.6,023.9,15.0,0000.0,0003.20,0010.87,0002.26
2024-03-05 02:15:00,SystemResetWarning,0823.1,5.01,000.00,022.1,021.3,000.0,030.6,023.9,15.0,0000.0,0003.21,0011.75,0002.27
2024-03-05 02:16:00,SystemResetWarning,0823.2,5.01,000.00,022.1,021.2,000.0,030.6,023.9,15.0,0000.0,0003.19,0012.08,0002.27
2024-03-05 02:17:00,SystemResetWarning,0823.2,4.99,000.00,022.1,021.3,000.0,030.6,023.9,15.0,0000.0,0003.18,0012.33,0002.25
2024-03-05 02:18:00,SystemResetWarning,0823.3,4.99,000.00,022.1,021.3,000.0,030.6,023.9,15.1,0000.0,0003.17,0012.21,0002.24
2024-03-05 02:19:00,SystemResetWarning,0823.3,5.00,000.00,022.1,021.3,000.0,030.6,023.9,15.1,0000.0,0003.12,0012.04,0002.21
2024-03-05 02:20:00,SystemResetWarning,0823.4,5.00,000.00,022.1,021.3,000.0,030.6,023.9,15.1,0000.0,0003.05,0012.13,0002.18
2024-03-05 02:21:00,SystemResetWarning,0823.4,5.00,000.00,022.1,021.3,000.0,030.6,023.9,15.2,0000.0,0003.05,0011.52,0002.16
2024-03-05 02:22:00,SystemResetWarning,0823.3,5.00,000.00,022.1,021.3,000.0,030.6,023.9,15.2,0000.0,0003.05,0010.95,0002.16
2024-03-05 02:23:00,SystemResetWarning,0823.3,5.00,000.00,022.1,021.3,000.0,030.6,023.9,15.3,0000.0,0003.06,0010.05,0002.16
2024-03-05 02:24:00,SystemResetWarning,0823.2,5.00,000.00,022.1,021.3,000.0,030.6,023.9,15.3,0000.0,0003.05,0010.71,0002.14
2024-03-05 02:25:00,SystemResetWarning,0823.1,5.01,000.00,022.1,021.2,000.0,030.6,023.9,15.3,0000.0,0003.05,0010.22,0002.14
2024-03-05 02:26:00,SystemResetWarning,0823.0,5.00,000.00,022.1,021.2,000.0,030.6,023.9,15.3,0000.0,0003.04,0009.77,0002.13
2024-03-05 02:27:00,SystemResetWarning,0823.0,5.01,000.00,022.0,021.2,000.0,030.6,023.9,15.3,0000.0,0003.00,0009.48,0002.12
2024-03-05 02:28:00,SystemResetWarning,0823.0,5.00,000.00,022.0,021.2,000.0,030.6,023.9,15.3,0000.0,0002.98,0010.32,0002.12
2024-03-05 02:29:00,SystemResetWarning,0823.0,5.00,000.00,022.0,021.2,000.0,030.5,023.9,15.4,0000.0,0003.03,0011.55,0002.12
2024-03-05 02:30:00,SystemResetWarning,0823.0,4.99,000.00,022.0,021.2,000.0,030.5,023.9,15.4,0000.0,0003.06,0011.62,0002.12
2024-03-05 02:31:00,SystemResetWarning,0823.0,5.00,000.00,022.0,021.2,000.0,030.5,023.8,15.4,0000.0,0003.10,0011.41,0002.12
2024-03-05 02:32:00,SystemResetWarning,0823.0,5.00,000.00,022.0,021.2,000.0,030.5,023.8,15.4,0000.0,0003.11,0012.20,0002.12
2024-03-05 02:33:00,SystemResetWarning,0823.0,5.00,000.00,022.0,021.2,000.0,030.5,023.9,15.4,0000.0,0003.12,0012.12,0002.11
2024-03-05 02:34:00,SystemResetWarning,0823.0,5.00,000.00,022.0,021.2,000.0,030.5,023.9,15.4,0000.0,0003.12,0012.20,0002.09
2024-03-05 02:35:00,SystemResetWarning,0823.0,5.01,000.00,022.0,021.1,000.0,030.5,023.8,15.4,0000.0,0003.10,0012.10,0002.09
2024-03-05 02:36:00,SystemResetWarning,0823.1,5.00,000.00,022.0,021.1,000.0,030.5,023.8,15.5,0000.0,0003.08,0011.95,0002.09
2024-03-05 02:37:00,SystemResetWarning,0823.1,5.00,000.00,022.0,021.1,000.0,030.5,023.8,15.5,0000.0,0003.09,0012.28,0002.09
2024-03-05 02:38:00,SystemResetWarning,0823.1,5.01,000.00,022.0,021.1,000.0,030.5,023.8,15.5,0000.0,0003.13,0012.20,0002.08
2024-03-05 02:39:00,SystemResetWarning,0823.1,5.00,000.00,022.0,021.1,000.0,030.5,023.8,15.5,0000.0,0003.12,0010.73,0002.08
2024-03-05 02:40:00,SystemResetWarning,0823.2,5.00,000.00,022.0,021.1,000.0,030.5,023.8,15.5,0000.0,0003.11,0010.10,0002.07
2024-03-05 02:41:00,SystemResetWarning,0823.1,5.00,000.00,022.0,021.1,000.0,030.5,023.8,15.5,0000.0,0003.15,0010.86,0002.07
2024-03-05 02:42:00,SystemResetWarning,0823.1,5.00,000.00,021.9,021.1,000.0,030.5,023.8,15.5,0000.0,0003.15,0011.55,0002.07
2024-03-05 02:43:00,SystemResetWarning,0823.1,5.00,000.00,021.9,021.1,000.0,030.5,023.8,15.5,0000.0,0003.14,0010.84,0002.08
2024-03-05 02:44:00,SystemResetWarning,0823.1,5.00,000.00,021.9,021.0,000.0,030.5,023.8,15.6,0000.0,0003.12,0010.48,0002.09
2024-03-05 02:45:00,SystemResetWarning,0823.2,5.01,000.00,021.9,021.0,000.0,030.5,023.8,15.5,0000.0,0003.12,0010.30,0002.10
2024-03-05 02:46:00,SystemResetWarning,0823.3,5.00,000.00,021.9,021.0,000.0,030.4,023.7,15.5,0000.0,0003.13,0009.63,0002.11
2024-03-05 02:47:00,SystemResetWarning,0823.3,4.99,000.00,021.9,021.1,000.0,030.4,023.7,15.5,0000.0,0003.13,0009.61,0002.12
2024-03-05 02:48:00,SystemResetWarning,0823.1,4.99,000.00,021.9,021.1,000.0,030.4,023.8,15.4,0000.0,0003.12,0009.05,0002.13
2024-03-05 02:49:00,SystemResetWarning,0823.1,4.99,000.00,021.9,021.1,000.0,030.4,023.8,15.4,0000.0,0003.12,0009.65,0002.15
2024-03-05 02:50:00,SystemResetWarning,0823.1,5.00,000.00,021.9,021.1,000.0,030.4,023.7,15.5,0000.0,0003.16,0010.19,0002.16
2024-03-05 02:51:00,SystemResetWarning,0823.2,5.00,000.00,021.9,021.1,000.0,030.4,023.7,15.5,0000.0,0003.16,0010.05,0002.17
2024-03-05 02:52:00,SystemResetWarning,0823.3,5.01,000.00,021.9,021.1,000.0,030.4,023.7,15.3,0000.0,0003.16,0010.06,0002.19
2024-03-05 02:53:00,SystemResetWarning,0823.3,5.00,000.00,021.9,021.1,000.0,030.4,023.7,15.4,0000.0,0003.15,0009.35,0002.19
2024-03-05 02:54:00,SystemResetWarning,0823.3,4.99,000.00,021.9,021.0,000.0,030.4,023.7,15.4,0000.0,0003.15,0009.16,0002.20
2024-03-05 02:55:00,SystemResetWarning,0823.4,5.00,000.00,021.8,021.0,000.0,030.4,023.6,15.5,0000.0,0003.18,0009.12,0002.20
2024-03-05 02:56:00,SystemResetWarning,0823.4,5.00,000.00,021.8,020.9,000.0,030.4,023.5,15.6,0000.0,0003.20,0009.16,0002.20
2024-03-05 02:57:00,SystemResetWarning,0823.4,5.01,000.00,021.7,020.8,000.0,030.4,023.4,15.6,0000.0,0003.25,0010.27,0002.21
2024-03-05 02:58:00,SystemResetWarning,0823.4,5.00,000.00,021.7,020.8,000.0,030.3,023.4,15.6,0000.0,0003.30,0010.45,0002.23
2024-03-05 02:59:00,SystemResetWarning,0823.4,4.99,000.00,021.7,020.7,000.0,030.3,023.4,15.6,0000.0,0003.35,0010.77,0002.24
